Tracking 25372 objects as of 24-Jan-2022
HD Live streaming from Space Station
objects crossing your sky now

OBJECT A

Track OBJECT A now!
10-day predictions


NORAD ID: 45249
Int'l Code: 2020-014A
Perigee: 471.4 km
Apogee: 482.7 km
Inclination: 35.0 °
Period: 94.0 minutes
Semi major axis: 6848 km
RCS: Unknown
Launch date: February 19, 2020
Source: People's Republic of China (PRC)
Launch site: Xichang Space Center, China (XSC)
aabbcc
Your satellite tracking list
Your tracking list is empty




NASA's NSSDC Master Catalog

Two Line Element Set (TLE):
1 45249U 20014A   22024.14688680  .00006206  00000-0  19680-3 0  9993
2 45249  35.0142 288.4742 0008233 209.0844 150.9416 15.31977181107905
Source of the keplerian elements: AFSPC